sat.trackr.live / text

‹ back to catalog

STARLINK-32736

NORAD 62443 · 2024-251M

PAYLOAD ACTIVE UNKNOWN

§ Identity

Operator
Country
US
Launch date
2024-12-29
Launch site
AFWTR
Launch vehicle
Mass (kg)
RCS (m²)

Purposes: comms

External: N2YO · Heavens-Above · Gunter

§ Orbital elements

Epoch: 2026-09-21T20:17:46.669056Z

Period
93.85 min
Inclination
53.1598°
Eccentricity
0.0001225
Mean motion
15.34403523 rev/d
Perigee alt
461.9 km
Apogee alt
463.5 km
Semi-major
6,840.8 km
B*
7.3141e-4
RAAN
143.2722°
Arg perigee
107.1840°
Mean anomaly
252.9297°
Rev number
9,783

§ Raw data

STARLINK-327361 62443U 24251M   26264.84567904  .00024419  00000+0  73141-3 0  99942 62443  53.1598 143.2722 0001225 107.1840 252.9297 15.34403523 97837

JSON: /api/v1/satellites/62443 · /tle

For live sub-satellite position, see the globe view (requires WebGL).

§ Visibility from observer

Set your observer location to see the next 7 days of passes ≥ 10°. The values pass through the URL so the page stays shareable.

No JS? Fill the form by hand. The geolocation button needs JavaScript.